owner,sensor,date,latitude,longitude,vertical_datum,sea_water_practical_salinity,qcFlag 
SCCF RECON,ioos:station:SCCF:13:1,2008-12-01T00:00:00Z,26.5255,-82.0032,2.44,33.08,1111122 
SCCF RECON,ioos:station:SCCF:13:1,2008-12-01T01:00:00Z,26.5255,-82.0032,2.43,32.59,1111122 
SCCF RECON,ioos:station:SCCF:13:1,2008-12-01T02:00:00Z,26.5255,-82.0032,2.41,32.56,1111122 
SCCF RECON,ioos:station:SCCF:13:1,2008-12-01T03:00:00Z,26.5255,-82.0032,2.39,30.77,1111122 
SCCF RECON,ioos:station:SCCF:13:1,2008-12-01T04:00:00Z,26.5255,-82.0032,2.41,30.49,1111122 
SCCF RECON,ioos:station:SCCF:13:1,2008-12-01T05:00:00Z,26.5255,-82.0032,2.45,31.79,1111122 
SCCF RECON,ioos:station:SCCF:13:1,2008-12-01T06:00:00Z,26.5255,-82.0032,2.49,32.38,1111122 
SCCF RECON,ioos:station:SCCF:13:1,2008-12-01T07:00:00Z,26.5255,-82.0032,2.516,32.61,1111122 
SCCF RECON,ioos:station:SCCF:13:1,2008-12-01T08:00:00Z,26.5255,-82.0032,2.52,32.96,1111122 
SCCF RECON,ioos:station:SCCF:13:1,2008-12-01T09:00:00Z,26.5255,-82.0032,2.51,33.0,1111122 
SCCF RECON,ioos:station:SCCF:13:1,2008-12-01T10:00:00Z,26.5255,-82.0032,2.48,32.41,1111122 
SCCF RECON,ioos:station:SCCF:13:1,2008-12-01T11:00:00Z,26.5255,-82.0032,2.42,31.93,1111122 
SCCF RECON,ioos:station:SCCF:13:1,2008-12-01T12:00:00Z,26.5255,-82.0032,2.35,30.11,1111122 
SCCF RECON,ioos:station:SCCF:13:1,2008-12-01T13:00:00Z,26.5255,-82.0032,2.27,28.97,1111122 
SCCF RECON,ioos:station:SCCF:13:1,2008-12-01T14:00:00Z,26.5255,-82.0032,2.21,28.14,1111122 
SCCF RECON,ioos:station:SCCF:13:1,2008-12-01T15:00:00Z,26.5255,-82.0032,2.14,27.39,1111122 
SCCF RECON,ioos:station:SCCF:13:1,2008-12-01T16:00:00Z,26.5255,-82.0032,2.08,26.03,1111122 
SCCF RECON,ioos:station:SCCF:13:1,2008-12-01T17:00:00Z,26.5255,-82.0032,2.07,25.33,1111122 
SCCF RECON,ioos:station:SCCF:13:1,2008-12-01T18:00:00Z,26.5255,-82.0032,2.09,24.63,1111122 
SCCF RECON,ioos:station:SCCF:13:1,2008-12-01T19:00:00Z,26.5255,-82.0032,2.12,24.9,1111122 
SCCF RECON,ioos:station:SCCF:13:1,2008-12-01T20:00:00Z,26.5255,-82.0032,2.177,26.73,1111122 
SCCF RECON,ioos:station:SCCF:13:1,2008-12-01T21:00:00Z,26.5255,-82.0032,2.2,27.66,1111122 
SCCF RECON,ioos:station:SCCF:13:1,2008-12-01T22:00:00Z,26.5255,-82.0032,2.21,28.62,1111122 
SCCF RECON,ioos:station:SCCF:13:1,2008-12-01T23:00:00Z,26.5255,-82.0032,2.21,29.41,1111122 
SCCF RECON,ioos:station:SCCF:13:1,2008-12-02T00:00:00Z,26.5255,-82.0032,2.21,28.6,1111122 
SCCF RECON,ioos:station:SCCF:13:1,2008-12-02T01:00:00Z,26.5255,-82.0032,2.217,27.76,1111122 
SCCF RECON,ioos:station:SCCF:13:1,2008-12-02T02:00:00Z,26.5255,-82.0032,2.23,27.14,1111122 
SCCF RECON,ioos:station:SCCF:13:1,2008-12-02T03:00:00Z,26.5255,-82.0032,2.25,29.3,1111122 
SCCF RECON,ioos:station:SCCF:13:1,2008-12-02T04:00:00Z,26.5255,-82.0032,2.28,29.91,1111122 
SCCF RECON,ioos:station:SCCF:13:1,2008-12-02T05:00:00Z,26.5255,-82.0032,2.3,30.36,1111122 
SCCF RECON,ioos:station:SCCF:13:1,2008-12-02T06:00:00Z,26.5255,-82.0032,2.33,31.3,1111122 
SCCF RECON,ioos:station:SCCF:13:1,2008-12-02T07:00:00Z,26.5255,-82.0032,2.37,31.74,1111122 
SCCF RECON,ioos:station:SCCF:13:1,2008-12-02T08:00:00Z,26.5255,-82.0032,2.39,32.35,1111122 
SCCF RECON,ioos:station:SCCF:13:1,2008-12-02T09:00:00Z,26.5255,-82.0032,2.41,32.69,1111122 
SCCF RECON,ioos:station:SCCF:13:1,2008-12-02T10:00:00Z,26.5255,-82.0032,2.42,32.99,1111122 
SCCF RECON,ioos:station:SCCF:13:1,2008-12-02T11:00:00Z,26.5255,-82.0032,2.42,32.19,1111122 
SCCF RECON,ioos:station:SCCF:13:1,2008-12-02T12:00:00Z,26.5255,-82.0032,2.42,31.31,1111122 
SCCF RECON,ioos:station:SCCF:13:1,2008-12-02T13:00:00Z,26.5255,-82.0032,2.38,29.92,1111122 
SCCF RECON,ioos:station:SCCF:13:1,2008-12-02T14:00:00Z,26.5255,-82.0032,2.27,28.42,1111122 
SCCF RECON,ioos:station:SCCF:13:1,2008-12-02T15:00:00Z,26.5255,-82.0032,2.17,26.82,1111122 
SCCF RECON,ioos:station:SCCF:13:1,2008-12-02T16:00:00Z,26.5255,-82.0032,2.08,24.89,1111122 
SCCF RECON,ioos:station:SCCF:13:1,2008-12-02T17:00:00Z,26.5255,-82.0032,2.02,23.84,1111122 
SCCF RECON,ioos:station:SCCF:13:1,2008-12-02T18:00:00Z,26.5255,-82.0032,1.99,23.18,1111122 
SCCF RECON,ioos:station:SCCF:13:1,2008-12-02T19:00:00Z,26.5255,-82.0032,2.01,23.0,1111122 
SCCF RECON,ioos:station:SCCF:13:1,2008-12-02T20:00:00Z,26.5255,-82.0032,2.03,22.85,1111122 
SCCF RECON,ioos:station:SCCF:13:1,2008-12-02T21:00:00Z,26.5255,-82.0032,2.04,23.13,1111122 
SCCF RECON,ioos:station:SCCF:13:1,2008-12-02T22:00:00Z,26.5255,-82.0032,2.06,23.09,1111122 
SCCF RECON,ioos:station:SCCF:13:1,2008-12-02T23:00:00Z,26.5255,-82.0032,2.06,22.75,1111122 
SCCF RECON,ioos:station:SCCF:13:1,2008-12-03T00:00:00Z,26.5255,-82.0032,2.06,22.36,1111122 
SCCF RECON,ioos:station:SCCF:13:1,2008-12-03T01:00:00Z,26.5255,-82.0032,2.05,22.11,1111122 
SCCF RECON,ioos:station:SCCF:13:1,2008-12-03T02:00:00Z,26.5255,-82.0032,2.04,21.91,1111122 
SCCF RECON,ioos:station:SCCF:13:1,2008-12-03T03:00:00Z,26.5255,-82.0032,2.04,22.17,1111122 
SCCF RECON,ioos:station:SCCF:13:1,2008-12-03T04:00:00Z,26.5255,-82.0032,2.07,25.55,1111122 
SCCF RECON,ioos:station:SCCF:13:1,2008-12-03T05:00:00Z,26.5255,-82.0032,2.08,25.54,1111122 
SCCF RECON,ioos:station:SCCF:13:1,2008-12-03T06:00:00Z,26.5255,-82.0032,2.08,26.6,1111122 
SCCF RECON,ioos:station:SCCF:13:1,2008-12-03T07:00:00Z,26.5255,-82.0032,2.11,28.26,1111122 
SCCF RECON,ioos:station:SCCF:13:1,2008-12-03T08:00:00Z,26.5255,-82.0032,2.12,28.7,1111122 
SCCF RECON,ioos:station:SCCF:13:1,2008-12-03T09:00:00Z,26.5255,-82.0032,2.13,29.86,1111122 
SCCF RECON,ioos:station:SCCF:13:1,2008-12-03T10:00:00Z,26.5255,-82.0032,2.15,30.48,1111122 
SCCF RECON,ioos:station:SCCF:13:1,2008-12-03T11:00:00Z,26.5255,-82.0032,2.16,30.62,1111122 
SCCF RECON,ioos:station:SCCF:13:1,2008-12-03T12:00:00Z,26.5255,-82.0032,2.159,28.57,1111122 
SCCF RECON,ioos:station:SCCF:13:1,2008-12-03T13:00:00Z,26.5255,-82.0032,2.14,26.81,1111122 
SCCF RECON,ioos:station:SCCF:13:1,2008-12-03T14:00:00Z,26.5255,-82.0032,2.11,24.98,1111122 
SCCF RECON,ioos:station:SCCF:13:1,2008-12-03T15:00:00Z,26.5255,-82.0032,2.09,24.02,1111122 
SCCF RECON,ioos:station:SCCF:13:1,2008-12-03T16:00:00Z,26.5255,-82.0032,2.05,23.18,1111122 
SCCF RECON,ioos:station:SCCF:13:1,2008-12-03T17:00:00Z,26.5255,-82.0032,2.01,22.16,1111122 
SCCF RECON,ioos:station:SCCF:13:1,2008-12-03T18:00:00Z,26.5255,-82.0032,2.01,21.7,1111122 
SCCF RECON,ioos:station:SCCF:13:1,2008-12-03T19:00:00Z,26.5255,-82.0032,2.03,21.58,1111122 
SCCF RECON,ioos:station:SCCF:13:1,2008-12-03T20:00:00Z,26.5255,-82.0032,2.04,24.63,1111122 
SCCF RECON,ioos:station:SCCF:13:1,2008-12-03T21:00:00Z,26.5255,-82.0032,2.05,25.99,1111122 
SCCF RECON,ioos:station:SCCF:13:1,2008-12-03T22:00:00Z,26.5255,-82.0032,2.07,27.48,1111122 
SCCF RECON,ioos:station:SCCF:13:1,2008-12-03T23:00:00Z,26.5255,-82.0032,2.09,29.75,1111122 
SCCF RECON,ioos:station:SCCF:13:1,2008-12-04T00:00:00Z,26.5255,-82.0032,2.12,30.83,1111122 
SCCF RECON,ioos:station:SCCF:13:1,2008-12-04T01:00:00Z,26.5255,-82.0032,2.14,31.02,1111122 
SCCF RECON,ioos:station:SCCF:13:1,2008-12-04T02:00:00Z,26.5255,-82.0032,2.14,30.85,1111122 
SCCF RECON,ioos:station:SCCF:13:1,2008-12-04T03:00:00Z,26.5255,-82.0032,2.15,30.96,1111122 
SCCF RECON,ioos:station:SCCF:13:1,2008-12-04T04:00:00Z,26.5255,-82.0032,2.16,30.96,1111122 
SCCF RECON,ioos:station:SCCF:13:1,2008-12-04T05:00:00Z,26.5255,-82.0032,2.16,29.58,1111122 
SCCF RECON,ioos:station:SCCF:13:1,2008-12-04T06:00:00Z,26.5255,-82.0032,2.17,30.86,1111122 
SCCF RECON,ioos:station:SCCF:13:1,2008-12-04T07:00:00Z,26.5255,-82.0032,2.18,30.45,1111122 
SCCF RECON,ioos:station:SCCF:13:1,2008-12-04T08:00:00Z,26.5255,-82.0032,2.19,30.59,1111122 
SCCF RECON,ioos:station:SCCF:13:1,2008-12-04T09:00:00Z,26.5255,-82.0032,2.21,30.56,1111122 
SCCF RECON,ioos:station:SCCF:13:1,2008-12-04T10:00:00Z,26.5255,-82.0032,2.24,30.92,1111122 
SCCF RECON,ioos:station:SCCF:13:1,2008-12-04T11:00:00Z,26.5255,-82.0032,2.25,31.18,1111122 
SCCF RECON,ioos:station:SCCF:13:1,2008-12-04T12:00:00Z,26.5255,-82.0032,2.26,31.36,1111122 
SCCF RECON,ioos:station:SCCF:13:1,2008-12-04T13:00:00Z,26.5255,-82.0032,2.25,30.5,1111122 
SCCF RECON,ioos:station:SCCF:13:1,2008-12-04T14:00:00Z,26.5255,-82.0032,2.23,26.91,1111122 
SCCF RECON,ioos:station:SCCF:13:1,2008-12-04T15:00:00Z,26.5255,-82.0032,2.21,26.27,1111122 
SCCF RECON,ioos:station:SCCF:13:1,2008-12-04T16:00:00Z,26.5255,-82.0032,2.18,25.29,1111122 
SCCF RECON,ioos:station:SCCF:13:1,2008-12-04T17:00:00Z,26.5255,-82.0032,2.13,24.1,1111122 
SCCF RECON,ioos:station:SCCF:13:1,2008-12-04T18:00:00Z,26.5255,-82.0032,2.1,24.05,1111122 
SCCF RECON,ioos:station:SCCF:13:1,2008-12-04T19:00:00Z,26.5255,-82.0032,2.1,23.55,1111122 
SCCF RECON,ioos:station:SCCF:13:1,2008-12-04T20:00:00Z,26.5255,-82.0032,2.12,23.78,1111122 
SCCF RECON,ioos:station:SCCF:13:1,2008-12-04T21:00:00Z,26.5255,-82.0032,2.12,26.6,1111122 
SCCF RECON,ioos:station:SCCF:13:1,2008-12-04T22:00:00Z,26.5255,-82.0032,2.13,27.93,1111122 
SCCF RECON,ioos:station:SCCF:13:1,2008-12-04T23:00:00Z,26.5255,-82.0032,2.15,29.14,1111122 
SCCF RECON,ioos:station:SCCF:13:1,2008-12-05T00:00:00Z,26.5255,-82.0032,2.18,30.74,1111122 
SCCF RECON,ioos:station:SCCF:13:1,2008-12-05T01:00:00Z,26.5255,-82.0032,2.21,31.29,1111122 
SCCF RECON,ioos:station:SCCF:13:1,2008-12-05T02:00:00Z,26.5255,-82.0032,2.22,31.41,1111122 
SCCF RECON,ioos:station:SCCF:13:1,2008-12-05T03:00:00Z,26.5255,-82.0032,2.23,31.61,1111122 
SCCF RECON,ioos:station:SCCF:13:1,2008-12-05T04:00:00Z,26.5255,-82.0032,2.23,31.38,1111122 
SCCF RECON,ioos:station:SCCF:13:1,2008-12-05T05:00:00Z,26.5255,-82.0032,2.23,29.61,1111122 
SCCF RECON,ioos:station:SCCF:13:1,2008-12-05T06:00:00Z,26.5255,-82.0032,2.21,27.39,1111122 
SCCF RECON,ioos:station:SCCF:13:1,2008-12-05T07:00:00Z,26.5255,-82.0032,2.22,26.85,1111122 
SCCF RECON,ioos:station:SCCF:13:1,2008-12-05T08:00:00Z,26.5255,-82.0032,2.22,27.32,1111122 
SCCF RECON,ioos:station:SCCF:13:1,2008-12-05T09:00:00Z,26.5255,-82.0032,2.23,29.73,1111122 
SCCF RECON,ioos:station:SCCF:13:1,2008-12-05T10:00:00Z,26.5255,-82.0032,2.237,30.5,1111122 
SCCF RECON,ioos:station:SCCF:13:1,2008-12-05T11:00:00Z,26.5255,-82.0032,2.25,30.47,1111122 
SCCF RECON,ioos:station:SCCF:13:1,2008-12-05T12:00:00Z,26.5255,-82.0032,2.265,30.97,1111122 
SCCF RECON,ioos:station:SCCF:13:1,2008-12-05T13:00:00Z,26.5255,-82.0032,2.27,31.18,1111122 
SCCF RECON,ioos:station:SCCF:13:1,2008-12-05T14:00:00Z,26.5255,-82.0032,2.27,30.72,1111122 
SCCF RECON,ioos:station:SCCF:13:1,2008-12-05T15:00:00Z,26.5255,-82.0032,2.25,27.59,1111122 
SCCF RECON,ioos:station:SCCF:13:1,2008-12-05T16:00:00Z,26.5255,-82.0032,2.23,24.95,1111122 
SCCF RECON,ioos:station:SCCF:13:1,2008-12-05T17:00:00Z,26.5255,-82.0032,2.2,24.88,1111122 
SCCF RECON,ioos:station:SCCF:13:1,2008-12-05T18:00:00Z,26.5255,-82.0032,2.16,23.87,1111122 
SCCF RECON,ioos:station:SCCF:13:1,2008-12-05T19:00:00Z,26.5255,-82.0032,2.14,23.21,1111122 
SCCF RECON,ioos:station:SCCF:13:1,2008-12-05T20:00:00Z,26.5255,-82.0032,2.15,23.27,1111122 
SCCF RECON,ioos:station:SCCF:13:1,2008-12-05T21:00:00Z,26.5255,-82.0032,2.17,26.67,1111122 
SCCF RECON,ioos:station:SCCF:13:1,2008-12-05T22:00:00Z,26.5255,-82.0032,2.16,27.99,1111122 
SCCF RECON,ioos:station:SCCF:13:1,2008-12-05T23:00:00Z,26.5255,-82.0032,2.17,29.17,1111122 
SCCF RECON,ioos:station:SCCF:13:1,2008-12-06T00:00:00Z,26.5255,-82.0032,2.19,30.66,1111122 
SCCF RECON,ioos:station:SCCF:13:1,2008-12-06T01:00:00Z,26.5255,-82.0032,2.22,31.66,1111122 
SCCF RECON,ioos:station:SCCF:13:1,2008-12-06T02:00:00Z,26.5255,-82.0032,2.231,31.9,1111122 
SCCF RECON,ioos:station:SCCF:13:1,2008-12-06T03:00:00Z,26.5255,-82.0032,2.24,32.16,1111122 
SCCF RECON,ioos:station:SCCF:13:1,2008-12-06T04:00:00Z,26.5255,-82.0032,2.24,31.07,1111122 
SCCF RECON,ioos:station:SCCF:13:1,2008-12-06T05:00:00Z,26.5255,-82.0032,2.24,29.54,1111122 
SCCF RECON,ioos:station:SCCF:13:1,2008-12-06T06:00:00Z,26.5255,-82.0032,2.22,26.64,1111122 
SCCF RECON,ioos:station:SCCF:13:1,2008-12-06T07:00:00Z,26.5255,-82.0032,2.21,25.52,1111122 
SCCF RECON,ioos:station:SCCF:13:1,2008-12-06T08:00:00Z,26.5255,-82.0032,2.19,24.41,1111122 
SCCF RECON,ioos:station:SCCF:13:1,2008-12-06T09:00:00Z,26.5255,-82.0032,2.18,24.9,1111122 
SCCF RECON,ioos:station:SCCF:13:1,2008-12-06T10:00:00Z,26.5255,-82.0032,2.19,25.87,1111122 
SCCF RECON,ioos:station:SCCF:13:1,2008-12-06T11:00:00Z,26.5255,-82.0032,2.2,28.99,1111122 
SCCF RECON,ioos:station:SCCF:13:1,2008-12-06T12:00:00Z,26.5255,-82.0032,2.21,29.67,1111122 
SCCF RECON,ioos:station:SCCF:13:1,2008-12-06T13:00:00Z,26.5255,-82.0032,2.22,30.26,1111122 
SCCF RECON,ioos:station:SCCF:13:1,2008-12-06T14:00:00Z,26.5255,-82.0032,2.24,30.9,1111122 
SCCF RECON,ioos:station:SCCF:13:1,2008-12-06T15:00:00Z,26.5255,-82.0032,2.24,31.13,1111122 
SCCF RECON,ioos:station:SCCF:13:1,2008-12-06T16:00:00Z,26.5255,-82.0032,2.24,30.29,1111122 
SCCF RECON,ioos:station:SCCF:13:1,2008-12-06T17:00:00Z,26.5255,-82.0032,2.24,27.79,1111122 
SCCF RECON,ioos:station:SCCF:13:1,2008-12-06T18:00:00Z,26.5255,-82.0032,2.23,25.87,1111122 
SCCF RECON,ioos:station:SCCF:13:1,2008-12-06T19:00:00Z,26.5255,-82.0032,2.2,25.11,1111122 
SCCF RECON,ioos:station:SCCF:13:1,2008-12-06T20:00:00Z,26.5255,-82.0032,2.19,25.15,1111122 
SCCF RECON,ioos:station:SCCF:13:1,2008-12-06T21:00:00Z,26.5255,-82.0032,2.19,25.76,1111122 
SCCF RECON,ioos:station:SCCF:13:1,2008-12-06T22:00:00Z,26.5255,-82.0032,2.21,28.12,1111122 
SCCF RECON,ioos:station:SCCF:13:1,2008-12-06T23:00:00Z,26.5255,-82.0032,2.22,29.53,1111122 
SCCF RECON,ioos:station:SCCF:13:1,2008-12-07T00:00:00Z,26.5255,-82.0032,2.22,31.29,1111122 
SCCF RECON,ioos:station:SCCF:13:1,2008-12-07T01:00:00Z,26.5255,-82.0032,2.25,32.12,1111122 
SCCF RECON,ioos:station:SCCF:13:1,2008-12-07T02:00:00Z,26.5255,-82.0032,2.28,32.53,1111122 
SCCF RECON,ioos:station:SCCF:13:1,2008-12-07T03:00:00Z,26.5255,-82.0032,2.295,32.61,1111122 
SCCF RECON,ioos:station:SCCF:13:1,2008-12-07T04:00:00Z,26.5255,-82.0032,2.3,32.64,1111122 
SCCF RECON,ioos:station:SCCF:13:1,2008-12-07T05:00:00Z,26.5255,-82.0032,2.3,31.78,1111122 
SCCF RECON,ioos:station:SCCF:13:1,2008-12-07T06:00:00Z,26.5255,-82.0032,2.29,30.24,1111122 
SCCF RECON,ioos:station:SCCF:13:1,2008-12-07T07:00:00Z,26.5255,-82.0032,2.26,29.25,1111122 
SCCF RECON,ioos:station:SCCF:13:1,2008-12-07T08:00:00Z,26.5255,-82.0032,2.2,28.06,1111122 
SCCF RECON,ioos:station:SCCF:13:1,2008-12-07T09:00:00Z,26.5255,-82.0032,2.17,26.51,1111122 
SCCF RECON,ioos:station:SCCF:13:1,2008-12-07T10:00:00Z,26.5255,-82.0032,2.16,25.46,1111122 
SCCF RECON,ioos:station:SCCF:13:1,2008-12-07T11:00:00Z,26.5255,-82.0032,2.17,26.1,1111122 
SCCF RECON,ioos:station:SCCF:13:1,2008-12-07T12:00:00Z,26.5255,-82.0032,2.18,28.65,1111122 
SCCF RECON,ioos:station:SCCF:13:1,2008-12-07T13:00:00Z,26.5255,-82.0032,2.2,29.29,1111122 
SCCF RECON,ioos:station:SCCF:13:1,2008-12-07T14:00:00Z,26.5255,-82.0032,2.21,29.78,1111122 
SCCF RECON,ioos:station:SCCF:13:1,2008-12-07T15:00:00Z,26.5255,-82.0032,2.22,29.86,1111122 
SCCF RECON,ioos:station:SCCF:13:1,2008-12-07T16:00:00Z,26.5255,-82.0032,2.22,28.3,1111122 
SCCF RECON,ioos:station:SCCF:13:1,2008-12-07T17:00:00Z,26.5255,-82.0032,2.21,26.44,1111122 
SCCF RECON,ioos:station:SCCF:13:1,2008-12-07T18:00:00Z,26.5255,-82.0032,2.19,24.88,1111122 
SCCF RECON,ioos:station:SCCF:13:1,2008-12-07T19:00:00Z,26.5255,-82.0032,2.15,23.96,1111122 
SCCF RECON,ioos:station:SCCF:13:1,2008-12-07T20:00:00Z,26.5255,-82.0032,2.13,23.88,1111122 
SCCF RECON,ioos:station:SCCF:13:1,2008-12-07T21:00:00Z,26.5255,-82.0032,2.11,23.54,1111122 
SCCF RECON,ioos:station:SCCF:13:1,2008-12-07T22:00:00Z,26.5255,-82.0032,2.11,23.21,1111122 
SCCF RECON,ioos:station:SCCF:13:1,2008-12-07T23:00:00Z,26.5255,-82.0032,2.11,23.76,1111122 
SCCF RECON,ioos:station:SCCF:13:1,2008-12-08T00:00:00Z,26.5255,-82.0032,2.13,25.92,1111122 
SCCF RECON,ioos:station:SCCF:13:1,2008-12-08T01:00:00Z,26.5255,-82.0032,2.14,27.2,1111122 
SCCF RECON,ioos:station:SCCF:13:1,2008-12-08T02:00:00Z,26.5255,-82.0032,2.15,29.14,1111122 
SCCF RECON,ioos:station:SCCF:13:1,2008-12-08T03:00:00Z,26.5255,-82.0032,2.16,29.74,1111122 
SCCF RECON,ioos:station:SCCF:13:1,2008-12-08T04:00:00Z,26.5255,-82.0032,2.17,30.79,1111122 
SCCF RECON,ioos:station:SCCF:13:1,2008-12-08T05:00:00Z,26.5255,-82.0032,2.17,28.51,1111122 
SCCF RECON,ioos:station:SCCF:13:1,2008-12-08T06:00:00Z,26.5255,-82.0032,2.157,27.02,1111122 
SCCF RECON,ioos:station:SCCF:13:1,2008-12-08T07:00:00Z,26.5255,-82.0032,2.13,24.94,1111122 
SCCF RECON,ioos:station:SCCF:13:1,2008-12-08T08:00:00Z,26.5255,-82.0032,2.09,24.13,1111122 
SCCF RECON,ioos:station:SCCF:13:1,2008-12-08T09:00:00Z,26.5255,-82.0032,2.04,23.32,1111122 
SCCF RECON,ioos:station:SCCF:13:1,2008-12-08T10:00:00Z,26.5255,-82.0032,1.99,22.57,1111122 
SCCF RECON,ioos:station:SCCF:13:1,2008-12-08T11:00:00Z,26.5255,-82.0032,1.97,21.83,1111122 
SCCF RECON,ioos:station:SCCF:13:1,2008-12-08T12:00:00Z,26.5255,-82.0032,1.97,21.61,1111122 
SCCF RECON,ioos:station:SCCF:13:1,2008-12-08T13:00:00Z,26.5255,-82.0032,1.97,23.72,1111122 
SCCF RECON,ioos:station:SCCF:13:1,2008-12-08T14:00:00Z,26.5255,-82.0032,1.98,25.08,1111122 
SCCF RECON,ioos:station:SCCF:13:1,2008-12-08T15:00:00Z,26.5255,-82.0032,2.02,26.87,1111122 
SCCF RECON,ioos:station:SCCF:13:1,2008-12-08T16:00:00Z,26.5255,-82.0032,2.04,29.22,1111122 
SCCF RECON,ioos:station:SCCF:13:1,2008-12-08T17:00:00Z,26.5255,-82.0032,2.07,30.23,1111122 
SCCF RECON,ioos:station:SCCF:13:1,2008-12-08T18:00:00Z,26.5255,-82.0032,2.1,30.52,1111122 
SCCF RECON,ioos:station:SCCF:13:1,2008-12-08T19:00:00Z,26.5255,-82.0032,2.12,30.74,1111122 
SCCF RECON,ioos:station:SCCF:13:1,2008-12-08T20:00:00Z,26.5255,-82.0032,2.14,30.73,1111122 
SCCF RECON,ioos:station:SCCF:13:1,2008-12-08T21:00:00Z,26.5255,-82.0032,2.15,30.58,1111122 
SCCF RECON,ioos:station:SCCF:13:1,2008-12-08T22:00:00Z,26.5255,-82.0032,2.17,30.44,1111122 
SCCF RECON,ioos:station:SCCF:13:1,2008-12-08T23:00:00Z,26.5255,-82.0032,2.18,30.64,1111122 
SCCF RECON,ioos:station:SCCF:13:1,2008-12-09T00:00:00Z,26.5255,-82.0032,2.19,31.04,1111122 
SCCF RECON,ioos:station:SCCF:13:1,2008-12-09T01:00:00Z,26.5255,-82.0032,2.22,31.39,1111122 
SCCF RECON,ioos:station:SCCF:13:1,2008-12-09T02:00:00Z,26.5255,-82.0032,2.266,31.73,1111122 
SCCF RECON,ioos:station:SCCF:13:1,2008-12-09T03:00:00Z,26.5255,-82.0032,2.28,32.52,1111122 
SCCF RECON,ioos:station:SCCF:13:1,2008-12-09T04:00:00Z,26.5255,-82.0032,2.29,32.78,1111122 
SCCF RECON,ioos:station:SCCF:13:1,2008-12-09T05:00:00Z,26.5255,-82.0032,2.3,32.73,1111122 
SCCF RECON,ioos:station:SCCF:13:1,2008-12-09T06:00:00Z,26.5255,-82.0032,2.3,30.34,1111122 
SCCF RECON,ioos:station:SCCF:13:1,2008-12-09T07:00:00Z,26.5255,-82.0032,2.28,28.71,1111122 
SCCF RECON,ioos:station:SCCF:13:1,2008-12-09T08:00:00Z,26.5255,-82.0032,2.26,28.78,1111122 
SCCF RECON,ioos:station:SCCF:13:1,2008-12-09T09:00:00Z,26.5255,-82.0032,2.21,27.07,1111122 
SCCF RECON,ioos:station:SCCF:13:1,2008-12-09T10:00:00Z,26.5255,-82.0032,2.14,26.09,1111122 
SCCF RECON,ioos:station:SCCF:13:1,2008-12-09T11:00:00Z,26.5255,-82.0032,2.1,25.96,1111122 
SCCF RECON,ioos:station:SCCF:13:1,2008-12-09T12:00:00Z,26.5255,-82.0032,2.09,25.22,1111122 
SCCF RECON,ioos:station:SCCF:13:1,2008-12-09T13:00:00Z,26.5255,-82.0032,2.1,25.8,1111122 
SCCF RECON,ioos:station:SCCF:13:1,2008-12-09T14:00:00Z,26.5255,-82.0032,2.11,27.4,1111122 
SCCF RECON,ioos:station:SCCF:13:1,2008-12-09T15:00:00Z,26.5255,-82.0032,2.14,28.14,1111122 
SCCF RECON,ioos:station:SCCF:13:1,2008-12-09T16:00:00Z,26.5255,-82.0032,2.17,30.7,1111122 
SCCF RECON,ioos:station:SCCF:13:1,2008-12-09T17:00:00Z,26.5255,-82.0032,2.2,31.97,1111122 
SCCF RECON,ioos:station:SCCF:13:1,2008-12-09T18:00:00Z,26.5255,-82.0032,2.23,31.95,1111122 
SCCF RECON,ioos:station:SCCF:13:1,2008-12-09T19:00:00Z,26.5255,-82.0032,2.26,31.84,1111122 
SCCF RECON,ioos:station:SCCF:13:1,2008-12-09T20:00:00Z,26.5255,-82.0032,2.278,32.05,1111122 
SCCF RECON,ioos:station:SCCF:13:1,2008-12-09T21:00:00Z,26.5255,-82.0032,2.28,31.88,1111122 
SCCF RECON,ioos:station:SCCF:13:1,2008-12-09T22:00:00Z,26.5255,-82.0032,2.31,31.86,1111122 
SCCF RECON,ioos:station:SCCF:13:1,2008-12-09T23:00:00Z,26.5255,-82.0032,2.35,31.38,1111122 
SCCF RECON,ioos:station:SCCF:13:1,2008-12-10T00:00:00Z,26.5255,-82.0032,2.36,31.63,1111122 
SCCF RECON,ioos:station:SCCF:13:1,2008-12-10T01:00:00Z,26.5255,-82.0032,2.36,32.34,1111122 
SCCF RECON,ioos:station:SCCF:13:1,2008-12-10T02:00:00Z,26.5255,-82.0032,2.37,33.12,1111122 
SCCF RECON,ioos:station:SCCF:13:1,2008-12-10T03:00:00Z,26.5255,-82.0032,2.4,33.5,1111122 
SCCF RECON,ioos:station:SCCF:13:1,2008-12-10T04:00:00Z,26.5255,-82.0032,2.43,33.67,1111122 
SCCF RECON,ioos:station:SCCF:13:1,2008-12-10T05:00:00Z,26.5255,-82.0032,2.45,33.59,1111122 
SCCF RECON,ioos:station:SCCF:13:1,2008-12-10T06:00:00Z,26.5255,-82.0032,2.46,33.52,1111122 
SCCF RECON,ioos:station:SCCF:13:1,2008-12-10T07:00:00Z,26.5255,-82.0032,2.46,32.62,1111122 
SCCF RECON,ioos:station:SCCF:13:1,2008-12-10T08:00:00Z,26.5255,-82.0032,2.44,31.28,1111122 
SCCF RECON,ioos:station:SCCF:13:1,2008-12-10T09:00:00Z,26.5255,-82.0032,2.37,30.68,1111122 
SCCF RECON,ioos:station:SCCF:13:1,2008-12-10T10:00:00Z,26.5255,-82.0032,2.28,29.41,1111122 
SCCF RECON,ioos:station:SCCF:13:1,2008-12-10T11:00:00Z,26.5255,-82.0032,2.19,28.78,1111122 
SCCF RECON,ioos:station:SCCF:13:1,2008-12-10T12:00:00Z,26.5255,-82.0032,2.14,28.28,1111122 
SCCF RECON,ioos:station:SCCF:13:1,2008-12-10T13:00:00Z,26.5255,-82.0032,2.14,27.73,1111122 
SCCF RECON,ioos:station:SCCF:13:1,2008-12-10T14:00:00Z,26.5255,-82.0032,2.15,27.36,1111122 
SCCF RECON,ioos:station:SCCF:13:1,2008-12-10T15:00:00Z,26.5255,-82.0032,2.16,28.58,1111122 
SCCF RECON,ioos:station:SCCF:13:1,2008-12-10T16:00:00Z,26.5255,-82.0032,2.19,29.14,1111122 
SCCF RECON,ioos:station:SCCF:13:1,2008-12-10T17:00:00Z,26.5255,-82.0032,2.22,30.38,1111122 
SCCF RECON,ioos:station:SCCF:13:1,2008-12-10T18:00:00Z,26.5255,-82.0032,2.24,32.22,1111122 
SCCF RECON,ioos:station:SCCF:13:1,2008-12-10T19:00:00Z,26.5255,-82.0032,2.26,32.83,1111122 
SCCF RECON,ioos:station:SCCF:13:1,2008-12-10T20:00:00Z,26.5255,-82.0032,2.28,32.78,1111122 
SCCF RECON,ioos:station:SCCF:13:1,2008-12-10T21:00:00Z,26.5255,-82.0032,2.308,32.72,1111122 
SCCF RECON,ioos:station:SCCF:13:1,2008-12-10T22:00:00Z,26.5255,-82.0032,2.314,32.84,1111122 
SCCF RECON,ioos:station:SCCF:13:1,2008-12-10T23:00:00Z,26.5255,-82.0032,2.32,32.79,1111122 
SCCF RECON,ioos:station:SCCF:13:1,2008-12-11T00:00:00Z,26.5255,-82.0032,2.34,32.58,1111122 
SCCF RECON,ioos:station:SCCF:13:1,2008-12-11T01:00:00Z,26.5255,-82.0032,2.37,32.72,1111122 
SCCF RECON,ioos:station:SCCF:13:1,2008-12-11T02:00:00Z,26.5255,-82.0032,2.377,33.18,1111122 
SCCF RECON,ioos:station:SCCF:13:1,2008-12-11T03:00:00Z,26.5255,-82.0032,2.4,33.49,1111122 
SCCF RECON,ioos:station:SCCF:13:1,2008-12-11T04:00:00Z,26.5255,-82.0032,2.437,33.55,1111122 
SCCF RECON,ioos:station:SCCF:13:1,2008-12-11T05:00:00Z,26.5255,-82.0032,2.46,33.63,1111122 
SCCF RECON,ioos:station:SCCF:13:1,2008-12-11T06:00:00Z,26.5255,-82.0032,2.47,33.46,1111122 
SCCF RECON,ioos:station:SCCF:13:1,2008-12-11T07:00:00Z,26.5255,-82.0032,2.48,33.47,1111122 
SCCF RECON,ioos:station:SCCF:13:1,2008-12-11T08:00:00Z,26.5255,-82.0032,2.46,33.2,1111122 
SCCF RECON,ioos:station:SCCF:13:1,2008-12-11T09:00:00Z,26.5255,-82.0032,2.39,32.25,1111122 
SCCF RECON,ioos:station:SCCF:13:1,2008-12-11T10:00:00Z,26.5255,-82.0032,2.28,31.93,1111122 
SCCF RECON,ioos:station:SCCF:13:1,2008-12-11T11:00:00Z,26.5255,-82.0032,2.18,31.14,1111122 
SCCF RECON,ioos:station:SCCF:13:1,2008-12-11T12:00:00Z,26.5255,-82.0032,2.09,29.59,1111122 
SCCF RECON,ioos:station:SCCF:13:1,2008-12-11T13:00:00Z,26.5255,-82.0032,2.05,28.93,1111122 
SCCF RECON,ioos:station:SCCF:13:1,2008-12-11T14:00:00Z,26.5255,-82.0032,2.06,28.49,1111122 
SCCF RECON,ioos:station:SCCF:13:1,2008-12-11T15:00:00Z,26.5255,-82.0032,2.075,29.3,1111122 
SCCF RECON,ioos:station:SCCF:13:1,2008-12-11T16:00:00Z,26.5255,-82.0032,2.11,30.25,1111122 
SCCF RECON,ioos:station:SCCF:13:1,2008-12-11T17:00:00Z,26.5255,-82.0032,2.18,32.72,1111122 
SCCF RECON,ioos:station:SCCF:13:1,2008-12-11T18:00:00Z,26.5255,-82.0032,2.23,33.03,1111122 
SCCF RECON,ioos:station:SCCF:13:1,2008-12-11T19:00:00Z,26.5255,-82.0032,2.24,32.97,1111122 